Weather History for Worland, WY

Change the Weather History Date:

Monday, November 4, 2013

  Actual Average Record
Temperature  
Mean Temperature 31 °F 37 °F  
Max Temperature 42 °F 52 °F 75 °F (1999)
Min Temperature 20 °F 23 °F -1 °F (1991)
Degree Days  
Heating Degree Days 34 28  
Month to date heating degree days 109 108  
Since 1 July heating degree days 942 970  
Cooling Degree Days 0 0  
Month to date cooling degree days 0 0  
Year to date cooling degree days 852 535  
Moisture  
Dew Point 18 °F    
Average Humidity 60    
Maximum Humidity 92    
Minimum Humidity 28    
Precipitation  
Precipitation 0.00 in 0.01 in 0.05 in (1960)
Month to date precipitation 0.00 0.05  
Year to date precipitation 7.62 7.04  
Sea Level Pressure  
Sea Level Pressure 30.03 in    
Wind  
Wind Speed 4 mph (SSE)    
Max Wind Speed 17 mph    
Max Gust Speed 22 mph    
Visibility 10 miles    
Events      
T = Trace of Precipitation, MM = Missing Value Source: NWS Daily Summary

Daily Weather History Graph

Daily Weather History Graph

Search for Another Location

Airport:

Trip Planner

Search our weather history database for the weather conditions in past years. The results will help you decide how hot, cold, wet, or windy it might be!

Date:

Astronomy

Nov. 04, 2013 Rise Set
Actual Time 6:52 AM MST 4:57 PM MST
Civil Twilight 6:22 AM MST 5:27 PM MST
Nautical Twilight 5:47 AM MST 6:02 PM MST
Astronomical Twilight 5:14 AM MST 6:35 PM MST
Moon 8:08 AM MST (11/4) 6:02 PM MST (11/4)
Length of Visible Light 11h 05m
Length of Day
10h 05m
New Moon, 2% of the Moon is Illuminated
Nov 4
New Moon
Nov 9
First Quarter
Nov 17
Full
Nov 25
Last Quarter
Dec 2
New

Hourly Weather History & Observations

Time (MST) Temp. Windchill Dew Point Humidity Pressure Visibility Wind Dir Wind Speed Gust Speed Precip Events Conditions
12:53 AM 25.0 °F 20.7 °F 21.9 °F 88% 29.96 in 10.0 mi South 3.5 mph - N/A   Clear
1:53 AM 26.1 °F 20.5 °F 21.9 °F 84% 29.97 in 10.0 mi SE 4.6 mph - N/A   Mostly Cloudy
2:53 AM 24.1 °F 15.2 °F 21.0 °F 88% 29.99 in 10.0 mi SSE 8.1 mph - N/A   Clear
3:53 AM 26.1 °F 17.6 °F 21.0 °F 81% 29.99 in 10.0 mi SSE 8.1 mph - N/A   Clear
4:53 AM 24.1 °F 18.2 °F 19.9 °F 84% 30.00 in 10.0 mi SSE 4.6 mph - N/A   Clear
5:53 AM 23.0 °F 13.1 °F 19.0 °F 85% 30.01 in 10.0 mi South 9.2 mph - N/A   Clear
6:53 AM 19.9 °F 11.1 °F 17.1 °F 89% 30.03 in 10.0 mi South 6.9 mph - N/A   Clear
7:53 AM 25.0 °F - 19.0 °F 78% 30.04 in 10.0 mi Calm Calm - N/A   Clear
8:53 AM 28.0 °F 24.2 °F 21.9 °F 78% 30.05 in 10.0 mi WSW 3.5 mph - N/A   Clear
9:53 AM 32.0 °F 28.7 °F 19.0 °F 59% 30.04 in 10.0 mi SW 3.5 mph - N/A   Clear
10:53 AM 35.1 °F - 18.0 °F 50% 30.04 in 10.0 mi Calm Calm - N/A   Clear
11:53 AM 37.9 °F - 12.0 °F 35% 30.01 in 10.0 mi Calm Calm - N/A   Clear
12:53 PM 39.0 °F 35.7 °F 12.9 °F 34% 29.99 in 10.0 mi NW 4.6 mph - N/A   Clear
1:53 PM 39.9 °F - 12.0 °F 32% 29.97 in 10.0 mi Calm Calm - N/A   Clear
2:53 PM 41.0 °F 38.0 °F 10.0 °F 28% 29.97 in 10.0 mi SSE 4.6 mph - N/A   Clear
3:53 PM 41.0 °F 39.0 °F 10.0 °F 28% 29.98 in 10.0 mi East 3.5 mph - N/A   Clear
4:53 PM 36.0 °F - 12.0 °F 37% 30.01 in 10.0 mi Calm Calm - N/A   Clear
5:53 PM 28.9 °F 25.2 °F 15.1 °F 56% 30.05 in 10.0 mi NE 3.5 mph - N/A   Clear
6:53 PM 28.0 °F 24.2 °F 16.0 °F 61% 30.09 in 10.0 mi ENE 3.5 mph - N/A   Overcast
7:53 PM 28.0 °F - 16.0 °F 61% 30.08 in 10.0 mi Calm Calm - N/A   Overcast
8:53 PM 30.9 °F 21.2 °F 24.1 °F 76% 30.10 in 10.0 mi North 12.7 mph - N/A   Overcast
9:53 PM 28.9 °F 22.8 °F 25.0 °F 85% 30.12 in 10.0 mi NNW 5.8 mph - N/A   Partly Cloudy
10:53 PM 26.1 °F 20.5 °F 24.1 °F 92% 30.13 in 10.0 mi NNE 4.6 mph - N/A   Clear
11:53 PM 24.1 °F - 21.9 °F 91% 30.14 in 10.0 mi Calm Calm - N/A   Mostly Cloudy